When you browse on this site, cookies collect data to enhance your experience and personalize the content and advertising you see.
Visit our Privacy Policy to learn more. By continuing to use the site, you agree to this use of cookies and data.
  • în România
  • Lista ţărilor
  • Pe 7 zile
  • Temperatura apei
  • Hartă satelitară
  • Meteo pe hartă
  • Widget-uri
  • user-avatar
    Intrare

    Meteo pe oră la Blenheim

    Astăzi, 25 Mai, Sâmbătă

    Timp Temperatura Precipitaţii Vânt Presiune Umiditate
    00:00 +7°C° 0 mm 2 m/s 766 mmHg 92%
    01:00 +7°C° 0 mm 3 m/s 766 mmHg 88%
    02:00 +7°C° 0 mm 3 m/s 766 mmHg 83%
    03:00 +7°C° 0 mm 3 m/s 766 mmHg 78%
    04:00 +5°C° 0 mm 3 m/s 766 mmHg 77%
    05:00 +5°C° 0 mm 3 m/s 766 mmHg 75%
    06:00 +5°C° 0 mm 2 m/s 765 mmHg 74%
    07:00 +6°C° 0 mm 2 m/s 765 mmHg 71%
    08:00 +7°C° 0 mm 2 m/s 765 mmHg 68%
    09:00 +8°C° 0 mm 2 m/s 765 mmHg 65%
    10:00 +10°C° 0 mm 2 m/s 765 mmHg 62%
    11:00 +14°C° 0 mm 2 m/s 765 mmHg 59%
    12:00 +16°C° 0 mm 3 m/s 764 mmHg 58%
    13:00 +15°C° 0 mm 4 m/s 764 mmHg 59%
    14:00 +15°C° 0 mm 4 m/s 764 mmHg 61%
    15:00 +15°C° 0 mm 4 m/s 763 mmHg 62%
    16:00 +14°C° 0 mm 4 m/s 763 mmHg 70%
    17:00 +12°C° 0 mm 4 m/s 763 mmHg 78%
    18:00 +10°C° 0 mm 3 m/s 763 mmHg 86%
    19:00 +10°C° 0 mm 3 m/s 763 mmHg 86%
    20:00 +9°C° 0 mm 3 m/s 763 mmHg 87%
    21:00 +9°C° 0 mm 3 m/s 763 mmHg 87%
    22:00 +9°C° 0 mm 3 m/s 763 mmHg 88%
    23:00 +8°C° 0 mm 3 m/s 763 mmHg 88%

    Mâine, 26 Mai, Duminică

    Timp Temperatura Precipitaţii Vânt Presiune Umiditate
    00:00 +8°C° 0 mm 3 m/s 763 mmHg 88%
    01:00 +8°C° 0 mm 3 m/s 762 mmHg 88%
    02:00 +8°C° 0 mm 3 m/s 762 mmHg 88%
    03:00 +8°C° 0 mm 3 m/s 762 mmHg 87%
    04:00 +8°C° 0 mm 3 m/s 762 mmHg 87%
    05:00 +8°C° 0 mm 3 m/s 762 mmHg 87%
    06:00 +8°C° 0 mm 3 m/s 762 mmHg 86%
    07:00 +9°C° 0 mm 3 m/s 762 mmHg 83%
    08:00 +9°C° 0 mm 3 m/s 762 mmHg 80%
    09:00 +10°C° 0 mm 3 m/s 762 mmHg 76%
    10:00 +12°C° 0 mm 3 m/s 762 mmHg 71%
    11:00 +14°C° 0 mm 3 m/s 762 mmHg 65%
    12:00 +17°C° 0 mm 3 m/s 762 mmHg 59%
    13:00 +18°C° 0 mm 3 m/s 762 mmHg 59%
    14:00 +18°C° 0 mm 3 m/s 761 mmHg 59%
    15:00 +19°C° 0 mm 2 m/s 761 mmHg 59%
    16:00 +17°C° 0 mm 2 m/s 761 mmHg 68%
    17:00 +15°C° 0 mm 2 m/s 761 mmHg 77%
    18:00 +13°C° 0 mm 2 m/s 761 mmHg 86%
    19:00 +13°C° 0 mm 2 m/s 761 mmHg 87%
    20:00 +12°C° 0 mm 3 m/s 761 mmHg 88%
    21:00 +11°C° 0 mm 3 m/s 761 mmHg 89%
    22:00 +11°C° 0 mm 3 m/s 761 mmHg 89%
    23:00 +11°C° 0 mm 3 m/s 761 mmHg 88%

    Poimâine, 27 Mai, Luni

    Timp Temperatura Precipitaţii Vânt Presiune Umiditate
    00:00 +11°C° 0 mm 4 m/s 761 mmHg 87%
    01:00 +11°C° 0 mm 4 m/s 761 mmHg 88%
    02:00 +11°C° 0 mm 4 m/s 761 mmHg 88%
    03:00 +10°C° 0 mm 4 m/s 760 mmHg 89%
    04:00 +10°C° 0 mm 4 m/s 760 mmHg 89%
    05:00 +10°C° 0 mm 4 m/s 760 mmHg 89%
    06:00 +10°C° 0 mm 4 m/s 759 mmHg 89%
    07:00 +11°C° 0 mm 4 m/s 760 mmHg 87%
    08:00 +11°C° 0 mm 3 m/s 760 mmHg 85%
    09:00 +12°C° 0 mm 3 m/s 760 mmHg 84%
    10:00 +14°C° 0 mm 4 m/s 760 mmHg 79%
    11:00 +15°C° 0 mm 5 m/s 760 mmHg 75%
    12:00 +17°C° 0 mm 6 m/s 760 mmHg 70%
    13:00 +17°C° 0 mm 6 m/s 759 mmHg 71%
    14:00 +17°C° 0 mm 5 m/s 759 mmHg 71%
    15:00 +16°C° 0 mm 5 m/s 758 mmHg 72%
    16:00 +15°C° 0 mm 5 m/s 758 mmHg 79%
    17:00 +14°C° 0 mm 4 m/s 758 mmHg 86%
    18:00 +12°C° 0 mm 3 m/s 758 mmHg 92%
    19:00 +12°C° 0 mm 3 m/s 758 mmHg 93%
    20:00 +12°C° 0 mm 3 m/s 758 mmHg 94%
    21:00 +12°C° 0 mm 3 m/s 758 mmHg 94%
    22:00 +12°C° 0 mm 3 m/s 758 mmHg 94%
    23:00 +13°C° 0 mm 2 m/s 757 mmHg 93%

    28 Mai, Marţi

    Timp Temperatura Precipitaţii Vânt Presiune Umiditate
    00:00 +13°C° 0 mm 2 m/s 757 mmHg 93%
    01:00 +13°C° 0 mm 2 m/s 757 mmHg 93%
    02:00 +13°C° 0 mm 2 m/s 757 mmHg 93%
    03:00 +12°C° 0 mm 2 m/s 756 mmHg 93%
    04:00 +12°C° 0 mm 3 m/s 756 mmHg 93%
    05:00 +12°C° 0 mm 3 m/s 755 mmHg 93%
    06:00 +12°C° 0 mm 3 m/s 755 mmHg 92%
    07:00 +13°C° 0.1 mm 2 m/s 754 mmHg 92%
    08:00 +14°C° 0.1 mm 2 m/s 754 mmHg 92%
    09:00 +15°C° 0.1 mm 2 m/s 753 mmHg 91%
    10:00 +14°C° 0.2 mm 3 m/s 753 mmHg 91%
    11:00 +15°C° 0.2 mm 4 m/s 752 mmHg 92%
    12:00 +15°C° 0.2 mm 4 m/s 751 mmHg 92%
    13:00 +15°C° 4.9 mm 4 m/s 749 mmHg 93%
    14:00 +14°C° 4.9 mm 3 m/s 748 mmHg 95%
    15:00 +14°C° 4.9 mm 3 m/s 747 mmHg 97%
    16:00 +14°C° 3 mm 3 m/s 746 mmHg 96%
    17:00 +13°C° 3 mm 3 m/s 746 mmHg 95%
    18:00 +12°C° 3 mm 3 m/s 745 mmHg 94%
    19:00 +13°C° 0.1 mm 3 m/s 745 mmHg 94%
    20:00 +13°C° 0.1 mm 4 m/s 744 mmHg 94%
    21:00 +14°C° 0.1 mm 4 m/s 744 mmHg 94%
    22:00 +13°C° 0.9 mm 4 m/s 744 mmHg 92%
    23:00 +13°C° 0.9 mm 5 m/s 745 mmHg 90%

    29 Mai, Miercuri

    Timp Temperatura Precipitaţii Vânt Presiune Umiditate
    00:00 +13°C° 0.9 mm 6 m/s 745 mmHg 88%
    01:00 +11°C° 0 mm 6 m/s 745 mmHg 87%
    02:00 +11°C° 0 mm 6 m/s 746 mmHg 85%
    03:00 +10°C° 0 mm 6 m/s 746 mmHg 84%
    04:00 +10°C° 0 mm 6 m/s 747 mmHg 81%
    05:00 +11°C° 0 mm 6 m/s 748 mmHg 78%
    06:00 +12°C° 0 mm 5 m/s 749 mmHg 75%
    07:00 +12°C° 0 mm 5 m/s 751 mmHg 76%
    08:00 +11°C° 0 mm 4 m/s 752 mmHg 77%
    09:00 +11°C° 0 mm 3 m/s 753 mmHg 78%
    10:00 +13°C° 0 mm 3 m/s 754 mmHg 72%
    11:00 +14°C° 0 mm 4 m/s 754 mmHg 66%
    12:00 +17°C° 0 mm 4 m/s 755 mmHg 60%
    13:00 +17°C° 0 mm 4 m/s 755 mmHg 61%
    14:00 +16°C° 0 mm 5 m/s 755 mmHg 61%
    15:00 +16°C° 0 mm 5 m/s 755 mmHg 62%
    16:00 +14°C° 0 mm 5 m/s 755 mmHg 68%
    17:00 +13°C° 0 mm 4 m/s 755 mmHg 74%
    18:00 +12°C° 0 mm 4 m/s 756 mmHg 80%
    19:00 +12°C° 0 mm 4 m/s 756 mmHg 82%
    20:00 +12°C° 0 mm 4 m/s 756 mmHg 83%
    21:00 +12°C° 0 mm 5 m/s 757 mmHg 85%
    22:00 +12°C° 0 mm 5 m/s 757 mmHg 85%
    23:00 +12°C° 0 mm 5 m/s 756 mmHg 85%

    30 Mai, Joi

    Timp Temperatura Precipitaţii Vânt Presiune Umiditate
    00:00 +12°C° 0 mm 5 m/s 756 mmHg 85%
    01:00 +13°C° 0 mm 6 m/s 756 mmHg 86%
    02:00 +13°C° 0 mm 6 m/s 756 mmHg 87%
    03:00 +14°C° 0 mm 6 m/s 756 mmHg 87%
    04:00 +14°C° 0.1 mm 6 m/s 756 mmHg 87%
    05:00 +14°C° 0.1 mm 7 m/s 756 mmHg 87%
    06:00 +15°C° 0.1 mm 7 m/s 756 mmHg 88%
    07:00 +15°C° 0 mm 7 m/s 756 mmHg 88%
    08:00 +15°C° 0 mm 6 m/s 756 mmHg 88%
    09:00 +15°C° 0 mm 6 m/s 756 mmHg 88%
    10:00 +16°C° 0 mm 7 m/s 756 mmHg 83%
    11:00 +17°C° 0 mm 8 m/s 756 mmHg 78%
    12:00 +18°C° 0 mm 9 m/s 756 mmHg 73%
    13:00 +18°C° 0 mm 8 m/s 755 mmHg 72%
    14:00 +18°C° 0 mm 8 m/s 755 mmHg 71%
    15:00 +18°C° 0 mm 8 m/s 754 mmHg 70%
    16:00 +17°C° 0 mm 7 m/s 754 mmHg 75%
    17:00 +16°C° 0 mm 7 m/s 754 mmHg 80%
    18:00 +15°C° 0 mm 6 m/s 754 mmHg 84%
    19:00 +15°C° 0.3 mm 7 m/s 754 mmHg 86%
    20:00 +15°C° 0.3 mm 7 m/s 754 mmHg 87%
    21:00 +15°C° 0.3 mm 7 m/s 754 mmHg 88%
    22:00 +15°C° 0.8 mm 7 m/s 754 mmHg 89%
    23:00 +15°C° 0.8 mm 7 m/s 753 mmHg 89%
    Arată mai mult